Temperature
25 25 24 24 22 21 23 24 24 24 23 23 23 22 22 21 20 18 18 19 19 19 19 19 19 19 19 18 18 18 18 18 18 18 18 18 18 18 18 18 18 18 18 18 18 18 18 18 18
25 25 24 24 22 21 23 24 24 24 24 23 23 22 21 20 19 19 18 19 19 19 19 19 19 19 19 18 18 18 18 18 18 18 18 18 18 18 18 18 18 18 18 18 18 18 18 18 18
25 25 24 22 22 22 23 24 25 25 24 24 23 22 21 20 19 19 19 19 19 19 19 19 19 19 19 19 18 19 19 18 18 18 18 18 18 18 18 18 18 18 18 18 18 18 18 18 18
25 24 24 22 24 25 25 25 25 25 24 23 23 22 21 21 20 20 20 20 19 19 19 19 19 19 19 19 19 19 19 19 18 18 18 18 18 18 18 18 18 18 18 18 18 18 18 18 18
26 25 23 23 25 26 26 26 26 25 24 23 22 21 21 21 20 20 20 20 20 20 19 19 19 19 19 19 19 19 19 18 18 18 18 18 18 18 18 18 18 18 18 18 18 18 18 18 18
26 24 23 23 25 26 26 26 25 24 23 23 22 21 20 20 20 20 20 20 20 20 19 19 19 19 19 19 19 19 19 19 18 18 18 18 18 18 18 18 18 18 18 18 18 18 18 18 18
26 23 24 25 25 26 26 26 25 24 24 23 22 21 20 20 20 20 20 20 20 20 19 19 19 19 19 19 19 19 19 19 18 18 18 18 18 18 18 18 18 18 18 18 18 18 18 18 18
28 24 25 25 26 26 27 27 26 25 24 23 23 21 20 20 21 20 20 20 20 19 19 19 19 19 19 19 19 19 19 18 18 18 18 18 18 18 18 18 18 18 18 18 18 18 18 18 18
28 24 24 25 26 26 27 27 26 25 24 24 23 22 21 21 21 20 20 20 20 19 19 19 19 19 19 19 19 19 18 18 18 18 18 18 18 18 18 18 18 18 18 18 18 18 18 18 18
28 24 26 27 27 26 27 26 26 25 24 23 23 22 22 21 21 21 20 20 20 20 19 19 19 19 19 19 19 19 19 18 18 18 18 18 18 18 18 18 18 18 18 18 18 18 18 18 18
28 27 28 28 28 28 27 27 26 24 23 23 22 22 22 22 21 21 21 20 20 20 20 19 19 19 19 19 19 19 19 18 18 18 18 18 18 18 18 18 18 18 18 18 18 18 18 18 18
29 29 29 29 29 28 27 27 26 25 24 24 23 23 22 22 22 21 21 21 20 20 20 20 19 19 19 19 19 19 19 18 18 18 18 18 18 18 18 18 18 18 18 18 18 18 18 18 18
29 29 30 30 29 29 28 27 26 25 24 24 24 23 23 22 22 22 21 21 20 20 20 20 19 19 19 19 19 19 18 18 18 18 18 18 18 18 18 18 18 18 18 18 18 18 18 18 18
29 29 29 29 29 28 27 26 25 25 24 24 24 23 23 23 22 22 21 21 21 20 20 20 20 19 19 19 19 19 19 18 18 18 18 18 18 18 18 18 18 18 18 18 18 18 18 18 18
30 28 28 28 28 27 27 25 25 25 25 24 24 24 23 23 23 22 22 21 21 21 20 20 20 20 19 19 19 19 19 18 18 18 18 18 18 18 18 18 18 18 18 18 18 18 18 18 18
27 26 26 27 27 27 26 24 25 25 25 24 24 24 23 23 23 22 22 22 21 21 20 20 20 20 19 19 19 19 19 19 18 18 18 18 18 18 18 18 18 18 18 18 18 18 18 18 18
25 25 26 27 27 27 25 24 25 25 25 25 24 24 23 23 23 23 22 22 21 21 21 20 20 20 19 19 19 19 19 19 18 18 18 18 18 18 18 18 18 18 18 18 18 18 18 18 18
25 25 26 26 27 27 25 24 25 25 25 25 24 24 24 23 23 23 22 22 22 21 21 20 20 20 19 19 19 19 19 19 18 19 19 18 18 18 18 18 18 18 18 18 18 18 18 18 18
27 26 26 26 27 26 25 25 25 25 25 25 24 24 24 24 23 23 23 22 22 21 21 20 20 20 20 19 19 19 19 19 18 18 19 18 18 18 18 18 18 18 18 18 18 18 18 18 18
28 27 26 27 27 26 25 25 25 25 25 25 25 24 24 24 23 23 23 22 22 22 21 21 20 20 20 20 19 19 19 19 18 18 18 18 18 18 18 18 18 18 18 18 18 18 18 18 18
27 27 27 26 27 26 25 25 24 25 25 25 25 25 25 24 24 23 23 22 22 22 22 21 21 20 20 20 19 19 19 19 18 18 18 18 18 18 18 18 18 18 18 18 18 18 18 18 17
27 28 28 27 25 24 25 23 23 23 24 24 25 25 25 24 24 24 23 23 23 22 22 21 21 21 20 20 20 19 19 19 19 19 18 18 18 18 18 18 18 18 18 18 18 18 18 18 18
28 29 28 27 24 23 23 23 23 23 23 24 24 25 25 25 24 24 24 23 23 23 22 22 21 21 20 20 20 20 19 19 19 18 18 18 18 18 18 18 18 18 18 18 18 18 18 18 18
29 27 26 23 22 22 23 23 23 22 23 24 25 25 25 25 25 25 24 24 23 23 22 22 22 21 21 20 20 20 19 19 19 19 19 18 18 18 18 18 18 18 18 18 18 18 18 18 17
27 24 23 23 22 22 22 23 22 24 24 24 25 25 25 25 25 24 24 24 23 23 22 22 22 21 21 20 20 20 20 19 19 19 19 19 19 18 18 18 18 18 18 18 17 17 17 17 17
27 24 23 23 23 22 23 23 23 25 25 26 26 25 25 25 25 24 24 24 24 23 23 22 22 22 21 21 21 20 20 20 19 19 19 19 19 18 18 18 18 18 17 17 17 17 17 17 17
28 25 23 22 22 22 22 23 24 25 25 25 25 25 25 24 25 25 25 24 24 24 23 23 22 22 21 21 21 21 20 20 20 19 19 19 19 18 18 18 18 18 17 17 17 17 17 17 17
27 26 22 22 22 22 23 23 23 24 24 24 24 24 25 25 25 25 24 24 24 24 23 23 23 22 22 22 21 21 20 20 20 19 19 19 19 18 18 18 18 17 17 17 17 17 17 17 17
27 26 22 20 21 22 22 22 24 24 24 23 24 24 25 25 25 25 25 24 24 24 24 23 23 22 22 22 21 21 21 21 20 20 19 19 19 18 18 18 17 17 17 17 17 17 17 17 17
26 25 22 23 22 21 21 22 25 24 24 24 24 24 25 25 25 25 25 24 24 24 23 23 23 22 22 22 22 21 21 21 20 20 20 19 19 18 18 18 17 17 17 17 17 17 17 17 16
Wind_Speed
10 8 3 1 5 6 7 7 9 11 7 9 11 11 11 9 6 7 4 8 8 5 7 9 11 12 13 13 14 15 15 15 16 16 16 16 17 17 17 17 17 18 18 17 17 17 17 17 17
7 5 2 3 6 6 5 7 12 13 13 13 12 13 11 9 8 9 5 8 8 8 8 9 12 13 13 14 14 15 15 15 15 16 16 16 16 16 17 17 17 17 17 17 16 16 16 16 16
5 3 2 4 4 6 6 8 13 14 13 10 7 8 6 7 8 6 7 10 8 7 9 10 12 13 14 14 15 15 16 15 15 16 15 15 16 16 16 16 16 16 16 16 16 15 15 15 15
3 2 3 5 6 6 9 11 14 15 11 10 10 8 5 7 6 10 13 11 10 7 9 11 13 14 15 15 15 15 15 15 15 15 15 15 15 15 16 16 16 15 15 15 14 14 14 14 14
2 3 5 5 7 7 10 14 14 13 7 11 13 9 7 7 14 16 13 12 10 7 8 12 14 14 15 15 15 15 15 15 14 14 15 15 14 15 15 15 15 15 14 14 13 12 13 12 12
3 3 5 5 8 8 9 13 16 17 16 14 13 10 5 9 14 13 12 11 10 9 8 10 14 14 14 14 14 14 14 13 13 13 14 14 14 14 14 14 14 14 13 12 11 11 10 10 10
4 4 5 7 8 9 9 10 13 15 14 10 11 8 5 8 11 13 12 11 9 9 7 7 9 11 13 13 13 13 12 12 12 12 12 12 12 13 13 13 13 12 12 11 10 9 8 8 7
5 4 5 6 9 9 9 9 11 15 12 13 9 8 7 9 11 12 11 10 9 7 6 6 7 8 9 10 11 11 11 11 10 10 11 11 11 11 11 11 11 11 10 9 8 7 6 6 5
5 5 5 7 9 9 12 13 9 10 13 8 7 9 12 15 14 12 9 7 7 7 5 5 5 6 7 8 9 9 9 9 9 8 9 8 6 6 8 8 9 9 8 7 7 6 5 4 3
6 6 8 8 10 11 14 15 10 9 13 11 12 12 14 13 13 12 11 9 8 7 6 5 5 5 6 6 7 6 6 6 6 6 6 6 5 4 5 7 8 7 7 6 6 5 4 3 1
6 7 7 8 11 13 12 11 8 12 11 15 17 16 14 12 11 11 10 9 9 8 7 6 5 5 5 4 6 5 4 4 4 5 6 5 4 4 3 4 4 4 4 4 3 3 3 2 2
6 6 8 8 11 12 12 9 9 10 12 16 16 16 13 12 11 11 10 9 8 8 7 6 6 5 5 5 4 4 4 4 3 5 6 5 3 3 3 3 3 3 3 3 2 2 2 2 2
7 6 7 9 12 13 14 12 11 10 14 15 15 14 13 12 10 9 10 9 9 8 7 7 6 5 5 5 3 4 3 4 4 4 5 6 4 3 3 2 3 3 3 3 2 2 2 2 2
5 6 7 9 11 12 16 12 9 12 16 15 14 12 12 13 12 10 9 9 9 8 8 7 7 6 5 4 3 3 4 5 5 4 4 5 5 3 2 2 2 2 3 3 2 2 2 1 1
5 7 5 5 7 8 14 9 11 15 15 15 14 13 12 12 12 12 11 10 10 9 9 8 7 5 5 4 4 4 4 5 4 3 3 5 5 4 3 2 1 1 2 2 2 2 3 2 2
5 5 2 2 5 6 10 9 10 15 15 13 13 13 12 11 12 12 11 10 10 9 9 8 8 6 6 5 4 3 4 4 3 3 3 4 4 4 3 2 2 1 2 2 2 2 2 2 1
4 2 1 2 3 5 6 8 11 12 14 12 12 12 13 11 10 11 12 11 10 10 9 7 7 7 6 5 4 3 3 3 3 3 2 3 3 4 4 2 1 2 2 1 1 2 2 2 2
3 2 2 3 3 4 5 8 12 12 13 12 12 12 12 13 12 12 12 12 11 9 9 8 7 6 5 4 3 2 2 1 2 2 3 4 3 4 4 2 1 2 2 1 2 2 2 2 2
7 5 5 4 4 3 5 9 13 12 11 11 11 11 12 13 11 12 12 12 11 9 8 8 7 6 5 3 3 2 1 0 1 1 3 4 4 3 3 2 2 2 2 1 2 3 2 1 2
5 6 5 2 4 4 5 6 9 11 13 14 15 14 13 11 11 12 11 11 11 10 9 8 8 7 6 4 3 3 2 1 1 1 2 4 4 3 3 3 2 2 2 2 2 3 2 1 2
5 7 7 5 2 3 4 1 5 6 6 8 12 13 14 16 16 15 14 12 12 11 11 10 8 8 6 6 3 3 2 2 2 1 1 1 3 3 3 3 3 2 2 2 1 2 3 2 1
6 7 8 8 5 1 3 2 6 6 6 9 11 13 14 14 14 13 14 13 13 12 10 9 9 7 6 6 5 5 4 3 3 2 2 1 2 3 3 3 3 2 2 2 1 2 2 3 1
7 6 6 7 6 2 1 3 6 3 7 10 12 15 15 16 16 16 15 15 13 13 11 9 9 8 7 7 7 6 4 3 2 2 3 2 1 2 3 3 2 2 1 2 1 1 2 2 2
4 3 4 5 5 1 4 4 5 5 10 9 11 14 15 15 15 14 13 12 11 11 10 10 9 8 7 7 7 7 6 6 5 3 3 2 1 1 1 2 2 1 1 1 1 1 1 1 1
5 6 3 4 3 4 4 2 7 9 9 10 11 12 13 14 15 14 14 13 13 13 12 11 11 9 8 8 7 7 7 7 6 5 4 3 2 1 1 1 1 1 1 1 1 1 1 1 1
5 10 8 5 5 3 2 4 7 8 7 7 8 9 10 11 14 15 16 15 15 14 13 12 11 9 8 8 7 6 6 5 4 4 4 4 3 2 2 2 2 2 1 2 2 1 1 1 1
5 5 9 8 3 2 3 5 7 3 2 5 5 7 9 11 13 15 15 15 14 14 13 13 12 10 9 8 7 6 6 6 5 4 4 3 3 3 3 3 2 2 2 2 2 2 1 2 2
7 7 6 6 5 2 3 3 5 5 4 5 8 8 9 11 12 13 14 14 14 14 13 12 12 11 10 9 8 7 6 6 5 5 4 4 3 3 3 3 3 2 2 3 3 2 2 3 2
2 3 5 5 7 7 4 7 7 9 8 9 9 9 10 12 13 12 13 13 13 12 12 12 12 10 9 9 8 7 7 6 6 5 5 4 4 4 4 3 3 3 3 3 3 2 3 3 3
6 7 7 5 4 6 6 7 5 7 7 8 9 8 8 9 11 10 12 12 12 13 12 12 12 11 10 9 8 8 7 6 6 5 5 4 4 4 4 4 3 3 3 3 3 3 3 3 3
Wind_Direction
169 168 160 108 57 62 82 85 94 85 70 69 77 83 81 67 90 121 155 135 126 118 117 106 103 100 97 95 94 94 95 95 95 97 101 103 105 106 107 107 107 107 107 106 108 109 111 113 115
165 166 129 61 83 87 86 98 94 102 118 106 86 82 78 74 87 112 127 138 128 122 118 110 106 104 102 100 97 97 96 95 96 99 101 106 107 108 109 109 108 108 108 109 110 111 112 114 116
179 175 94 71 97 122 125 113 109 109 109 100 89 65 68 100 109 122 141 135 121 118 120 119 112 108 107 105 102 101 99 96 95 98 101 108 110 110 111 110 108 108 108 109 109 111 113 115 115
149 101 57 78 103 129 133 129 120 112 89 84 93 74 65 101 115 130 135 131 123 120 126 124 118 113 111 109 106 103 103 101 98 99 101 106 112 112 113 111 110 109 109 109 109 111 112 114 115
93 90 70 80 99 114 124 127 121 107 95 96 97 99 87 89 115 129 134 134 131 127 127 124 120 117 114 113 110 106 105 105 103 101 101 104 107 112 114 113 112 111 111 112 112 113 111 114 117
67 72 88 107 110 113 117 118 111 106 114 112 107 107 103 121 126 135 137 134 131 130 129 127 126 122 120 119 116 113 110 109 108 105 104 104 107 113 114 116 115 115 116 117 117 117 116 115 114
119 103 132 131 117 119 127 123 119 127 130 128 125 107 118 132 139 139 135 129 126 131 131 128 131 130 127 124 123 121 119 116 114 112 110 109 111 115 116 121 120 119 119 119 121 122 122 117 115
155 115 112 120 120 125 129 115 123 129 124 133 128 125 149 159 143 133 128 127 128 130 132 132 135 137 138 133 131 131 129 127 124 122 120 118 118 120 120 123 126 126 126 128 131 130 129 127 124
131 103 136 146 133 133 123 111 106 102 119 122 110 126 146 146 135 129 126 124 133 139 147 144 146 151 150 148 144 138 135 134 134 134 133 128 124 129 130 135 139 140 141 141 145 147 149 146 147
120 133 169 163 146 140 130 125 122 106 109 109 111 121 136 139 137 137 143 146 151 159 166 160 156 161 166 155 145 149 146 147 151 156 154 149 151 164 152 158 160 162 161 161 165 171 180 194 197
117 135 140 136 141 133 127 127 114 121 128 142 142 144 145 140 141 143 151 155 157 161 159 157 161 168 167 154 153 164 160 165 168 166 168 163 166 174 173 171 182 187 185 191 187 198 205 215 220
96 118 131 140 135 128 132 126 117 133 151 152 147 146 147 147 149 150 154 156 153 146 149 147 143 141 146 147 152 161 162 166 168 168 164 160 155 155 170 185 192 200 207 211 212 201 200 206 229
97 109 114 126 122 125 121 121 121 133 143 145 146 146 150 153 154 153 150 147 142 144 149 145 135 132 129 123 143 144 154 154 162 164 166 157 151 149 166 181 190 203 198 196 197 203 193 179 194
134 121 118 121 113 121 121 121 115 144 147 149 152 153 154 154 153 148 146 144 145 147 149 145 137 133 121 115 118 128 136 132 131 147 158 153 150 152 155 165 181 198 196 200 186 182 161 145 126
84 94 86 114 107 125 114 109 141 155 152 154 157 158 155 157 153 154 159 154 153 152 150 149 146 134 122 113 114 121 129 130 129 146 151 152 151 157 158 149 154 194 175 156 134 128 113 121 126
58 69 91 214 124 148 117 144 165 159 157 161 163 161 158 163 160 160 161 153 150 149 153 160 150 139 130 125 118 117 120 128 143 152 143 139 146 149 145 150 177 175 137 116 117 120 111 118 122
33 82 193 254 189 149 119 155 172 165 160 167 167 165 163 164 163 163 160 156 154 154 154 152 146 150 145 135 125 118 116 124 140 146 143 143 144 142 140 148 162 128 105 108 126 116 138 140 131
202 199 223 221 212 139 141 163 169 174 169 172 170 169 168 170 172 168 161 160 158 157 152 150 150 155 146 130 110 94 77 91 117 138 152 153 147 138 127 124 114 117 108 89 97 113 118 141 140
174 183 215 213 170 139 171 167 176 179 176 177 177 174 176 177 175 167 164 162 158 157 154 154 155 160 147 135 132 128 146 154 124 147 153 150 144 137 124 116 107 107 122 139 125 121 108 96 109
181 184 211 231 172 161 185 180 182 185 188 186 183 180 179 174 169 171 168 167 168 167 165 162 163 164 161 159 157 159 159 166 165 141 130 140 133 136 134 125 129 116 106 87 108 119 119 147 137
224 196 194 182 67 70 115 87 199 207 199 193 190 184 180 180 177 176 175 176 173 174 174 172 171 169 167 159 138 120 90 69 74 94 117 119 131 132 118 117 113 111 117 126 136 137 143 165 221
225 216 172 157 126 226 129 193 249 210 211 207 196 191 188 185 180 179 179 179 179 182 177 168 170 170 167 157 151 152 154 161 186 176 154 117 114 117 116 114 115 111 110 119 140 135 147 149 180
209 202 161 153 129 78 28 148 266 208 215 215 203 197 194 188 182 182 184 184 181 178 175 171 167 169 167 162 162 158 160 168 160 138 122 103 66 98 116 115 113 116 121 134 138 131 138 151 169
163 91 64 70 87 129 233 170 253 215 211 207 209 203 193 186 183 182 181 177 175 173 173 172 167 171 168 165 165 164 162 156 149 150 143 132 101 77 95 101 98 112 133 143 151 146 150 171 174
98 95 47 12 25 239 235 179 241 227 208 201 200 197 190 183 180 179 176 178 177 175 176 174 170 174 174 168 169 169 166 158 159 159 157 153 145 137 162 129 124 148 162 123 115 127 140 158 157
177 142 158 184 201 255 297 227 251 239 207 192 190 180 178 183 182 180 180 180 180 179 177 174 174 175 174 170 174 169 159 154 157 162 157 159 169 177 170 147 145 135 111 101 97 104 113 89 101
170 173 168 142 146 141 269 284 307 301 179 168 150 153 171 180 181 181 180 180 179 179 180 177 175 175 174 173 166 161 162 157 157 154 148 154 164 155 139 134 125 111 95 97 99 82 68 78 76
167 155 101 119 145 193 273 267 240 232 205 172 158 166 183 183 176 178 180 179 179 179 176 173 174 177 176 172 171 170 168 164 160 147 146 150 147 129 123 116 113 107 96 98 100 89 75 81 65
176 120 117 129 153 154 198 255 227 199 184 170 172 177 183 177 175 179 182 180 177 171 171 173 175 174 172 172 171 167 166 163 157 155 160 158 147 141 139 131 116 108 104 103 101 96 89 87 69
187 181 149 155 205 164 170 255 264 190 179 168 162 167 172 169 171 175 176 172 171 171 172 175 177 175 176 173 168 168 163 157 159 167 169 158 149 147 143 135 122 116 106 100 102 102 91 93 91
Height
1497 1497 1498 1499 1503 1514 1517 1511 1506 1506 1508 1509 1508 1509 1513 1516 1521 1530 1527 1525 1525 1523 1523 1522 1521 1520 1519 1518 1518 1517 1517 1517 1516 1516 1516 1517 1518 1519 1520 1521 1522 1523 1524 1526 1527 1528 1529 1530 1531
1497 1498 1500 1501 1512 1528 1523 1510 1509 1508 1510 1509 1511 1513 1515 1520 1522 1525 1526 1526 1526 1525 1524 1523 1523 1522 1522 1521 1520 1519 1519 1519 1519 1519 1519 1520 1521 1522 1523 1524 1525 1526 1527 1528 1529 1530 1532 1533 1534
1498 1499 1501 1505 1516 1524 1521 1510 1509 1510 1510 1509 1513 1515 1518 1522 1524 1526 1527 1527 1526 1526 1525 1525 1524 1524 1524 1523 1523 1522 1522 1521 1521 1522 1522 1522 1523 1524 1526 1527 1527 1529 1530 1531 1532 1533 1534 1535 1537
1499 1501 1503 1510 1516 1510 1508 1508 1508 1510 1512 1513 1514 1519 1522 1525 1525 1527 1528 1528 1527 1527 1526 1526 1526 1526 1526 1526 1526 1525 1525 1524 1524 1524 1524 1524 1526 1527 1528 1529 1530 1531 1532 1534 1535 1536 1537 1538 1539
1500 1501 1508 1516 1513 1506 1503 1505 1506 1509 1513 1516 1516 1522 1526 1528 1528 1528 1529 1529 1529 1528 1528 1528 1528 1528 1528 1528 1528 1528 1528 1527 1527 1527 1527 1527 1529 1530 1530 1532 1533 1534 1535 1536 1537 1538 1539 1541 1542
1500 1502 1517 1523 1513 1507 1506 1506 1508 1512 1517 1519 1520 1523 1529 1530 1529 1530 1531 1531 1531 1530 1530 1530 1531 1531 1531 1531 1531 1531 1531 1530 1530 1531 1531 1531 1532 1533 1533 1534 1536 1537 1538 1539 1540 1541 1542 1543 1544
1501 1506 1515 1515 1513 1511 1508 1507 1508 1513 1517 1519 1521 1524 1530 1531 1531 1532 1533 1533 1533 1532 1532 1532 1533 1533 1533 1533 1534 1534 1534 1534 1534 1534 1534 1535 1535 1536 1536 1538 1539 1540 1541 1541 1542 1544 1544 1546 1547
1498 1505 1512 1513 1513 1512 1507 1508 1510 1512 1517 1521 1521 1524 1529 1531 1532 1534 1534 1535 1534 1535 1534 1535 1535 1535 1536 1536 1536 1536 1537 1537 1537 1537 1537 1538 1538 1539 1539 1540 1541 1542 1543 1544 1545 1546 1547 1548 1549
1497 1508 1516 1511 1511 1510 1506 1508 1513 1514 1517 1521 1522 1524 1527 1531 1533 1534 1535 1536 1536 1537 1537 1537 1537 1538 1538 1538 1539 1539 1539 1539 1539 1540 1540 1541 1541 1542 1542 1543 1544 1545 1546 1547 1547 1548 1549 1550 1551
1494 1508 1506 1499 1500 1504 1506 1508 1512 1517 1519 1522 1525 1527 1530 1532 1533 1534 1536 1536 1537 1538 1538 1539 1539 1539 1540 1540 1540 1541 1541 1541 1542 1542 1543 1543 1543 1544 1545 1545 1546 1547 1547 1548 1549 1550 1551 1552 1552
1491 1498 1496 1497 1498 1502 1506 1510 1512 1517 1522 1522 1524 1527 1531 1533 1534 1535 1536 1537 1538 1539 1539 1540 1540 1541 1541 1542 1542 1542 1543 1543 1544 1544 1545 1545 1545 1546 1546 1547 1548 1548 1549 1550 1551 1552 1552 1553 1554
1492 1493 1495 1497 1499 1502 1506 1510 1514 1516 1520 1522 1524 1527 1530 1533 1534 1536 1537 1538 1539 1540 1541 1541 1542 1542 1543 1543 1543 1544 1544 1545 1545 1546 1546 1546 1547 1547 1547 1548 1549 1550 1550 1551 1552 1552 1553 1553 1554
1493 1495 1496 1498 1499 1502 1506 1510 1514 1518 1521 1524 1526 1529 1531 1533 1535 1537 1538 1539 1540 1541 1542 1543 1543 1543 1544 1544 1545 1545 1546 1546 1547 1547 1547 1548 1548 1548 1548 1549 1550 1550 1551 1552 1552 1553 1553 1553 1554
1494 1496 1498 1499 1501 1504 1507 1513 1516 1521 1522 1525 1527 1529 1531 1533 1535 1537 1538 1540 1541 1541 1542 1543 1544 1545 1545 1546 1546 1546 1547 1547 1547 1548 1548 1548 1549 1549 1549 1549 1550 1550 1551 1552 1552 1553 1553 1553 1553
1494 1499 1502 1503 1503 1508 1509 1519 1518 1520 1522 1525 1527 1530 1532 1533 1535 1536 1538 1539 1541 1542 1543 1544 1545 1545 1546 1547 1547 1547 1547 1548 1548 1548 1548 1548 1549 1549 1549 1549 1550 1551 1551 1552 1552 1552 1552 1553 1553
1499 1508 1516 1507 1505 1509 1513 1528 1519 1520 1522 1525 1527 1529 1531 1533 1535 1536 1538 1539 1541 1542 1543 1544 1545 1546 1546 1547 1547 1548 1548 1548 1548 1548 1548 1548 1549 1549 1549 1549 1550 1550 1551 1551 1552 1552 1552 1552 1553
1512 1521 1519 1512 1505 1508 1513 1522 1519 1520 1521 1524 1526 1528 1530 1533 1535 1536 1537 1539 1540 1541 1542 1544 1545 1546 1546 1547 1548 1548 1548 1548 1548 1548 1548 1548 1548 1549 1549 1549 1550 1550 1550 1551 1551 1551 1552 1552 1552
1521 1520 1518 1517 1507 1508 1513 1516 1516 1518 1520 1522 1525 1527 1529 1531 1533 1534 1536 1538 1539 1541 1542 1543 1545 1546 1546 1547 1548 1548 1548 1548 1548 1548 1548 1548 1548 1549 1549 1549 1549 1550 1550 1550 1550 1551 1551 1551 1552
1504 1511 1515 1511 1506 1511 1514 1515 1514 1516 1519 1521 1523 1525 1527 1529 1532 1534 1535 1537 1539 1540 1542 1543 1544 1545 1546 1547 1547 1548 1548 1548 1548 1548 1548 1548 1549 1549 1549 1549 1549 1549 1549 1550 1550 1550 1551 1551 1551
1501 1509 1512 1507 1503 1509 1514 1514 1512 1513 1515 1517 1519 1522 1524 1528 1530 1532 1534 1536 1537 1539 1540 1542 1543 1544 1545 1546 1547 1547 1548 1548 1548 1548 1548 1548 1548 1549 1549 1549 1549 1549 1549 1549 1549 1549 1550 1550 1550
1501 1506 1508 1510 1507 1508 1514 1521 1517 1514 1515 1516 1518 1520 1522 1524 1527 1529 1532 1534 1536 1537 1539 1541 1542 1543 1545 1546 1546 1547 1547 1547 1548 1548 1548 1548 1549 1549 1549 1549 1549 1549 1548 1548 1548 1549 1549 1549 1549
1503 1492 1496 1503 1516 1525 1521 1540 1523 1516 1515 1515 1515 1517 1519 1522 1524 1527 1530 1532 1533 1535 1538 1539 1541 1542 1544 1545 1546 1546 1546 1547 1547 1548 1548 1548 1548 1549 1549 1549 1548 1548 1548 1548 1548 1548 1548 1548 1548
1491 1486 1492 1500 1513 1526 1525 1536 1528 1515 1516 1512 1511 1513 1515 1518 1521 1524 1526 1529 1531 1534 1536 1538 1540 1541 1543 1544 1545 1545 1546 1546 1547 1547 1548 1548 1548 1548 1548 1548 1548 1547 1547 1547 1547 1547 1547 1547 1547
1481 1489 1498 1509 1521 1539 1528 1533 1531 1517 1509 1506 1507 1509 1511 1514 1518 1521 1524 1528 1530 1533 1535 1537 1538 1540 1541 1543 1544 1544 1545 1546 1546 1547 1547 1548 1548 1548 1548 1548 1547 1547 1546 1546 1546 1546 1546 1545 1545
1484 1508 1531 1536 1545 1541 1524 1527 1524 1502 1497 1498 1500 1502 1507 1511 1514 1518 1521 1525 1528 1530 1533 1535 1537 1538 1540 1541 1542 1543 1544 1545 1546 1546 1547 1547 1547 1547 1547 1547 1547 1546 1546 1545 1545 1545 1545 1545 1544
1487 1502 1530 1543 1547 1540 1525 1526 1510 1492 1491 1493 1496 1499 1504 1509 1511 1515 1518 1521 1524 1528 1530 1533 1535 1536 1538 1540 1541 1542 1543 1544 1545 1546 1546 1546 1546 1546 1546 1546 1546 1545 1545 1545 1545 1544 1544 1544 1543
1485 1495 1500 1521 1530 1540 1533 1518 1501 1490 1491 1491 1494 1498 1501 1506 1508 1511 1515 1519 1522 1525 1528 1531 1533 1535 1537 1538 1540 1542 1543 1544 1544 1545 1546 1546 1546 1546 1546 1545 1545 1545 1545 1544 1544 1544 1543 1543 1542
1474 1484 1504 1520 1538 1546 1535 1524 1516 1498 1494 1492 1493 1496 1498 1501 1505 1509 1513 1516 1519 1522 1526 1529 1531 1533 1535 1537 1539 1540 1542 1543 1543 1544 1544 1545 1545 1545 1545 1545 1545 1544 1544 1544 1543 1543 1542 1542 1541
1479 1485 1499 1514 1519 1537 1542 1529 1493 1490 1488 1490 1491 1493 1495 1498 1501 1506 1510 1513 1516 1520 1523 1526 1529 1531 1534 1536 1538 1539 1540 1541 1542 1543 1543 1544 1544 1544 1544 1544 1544 1544 1543 1543 1542 1542 1541 1541 1541
1473 1481 1495 1513 1518 1521 1529 1520 1482 1483 1484 1485 1488 1491 1494 1496 1499 1503 1507 1511 1514 1517 1521 1524 1527 1529 1532 1534 1536 1537 1538 1539 1540 1541 1542 1543 1543 1543 1543 1543 1543 1543 1542 1542 1542 1541 1541 1540 1540